Theta_e
331 334 330 317 303 301 297 300 301 302 306 311 314 310 310 312 310 302 325 331 332 333 338 341 342 343 340 342 341 344 344 343 342 342 343 344 344 342 340 339 338 336 336 335 333 332 331 331 331
327 332 317 309 301 295 296 302 301 303 313 315 314 315 314 310 320 324 328 332 333 336 338 339 342 345 343 343 341 344 343 343 342 341 340 338 338 340 340 340 339 337 335 335 333 332 331 330 329
325 322 309 304 301 296 298 302 301 308 313 309 312 317 314 314 323 326 328 332 334 335 338 339 343 345 344 344 344 344 342 339 337 336 336 336 335 334 333 335 337 339 335 335 334 333 332 331 330
317 313 308 300 298 304 304 304 306 307 306 313 314 312 317 324 325 328 332 333 333 334 337 340 344 344 342 342 340 339 338 338 337 336 335 334 334 333 332 332 332 334 337 336 333 333 332 331 331
313 308 299 297 299 307 307 306 307 304 304 307 311 310 314 324 329 330 331 332 332 333 336 339 342 344 343 341 340 339 339 337 336 334 334 332 332 332 331 331 330 331 332 334 335 334 333 332 333
305 305 297 294 298 304 303 306 306 304 305 309 313 312 312 325 327 328 330 329 332 333 336 337 336 339 341 342 342 342 341 338 336 334 334 332 332 332 331 331 331 330 329 329 330 332 333 332 331
304 301 296 295 298 302 304 306 304 304 306 307 316 310 318 325 326 327 327 329 331 332 336 335 336 335 334 338 339 341 342 340 339 338 337 336 335 334 334 335 333 332 332 331 331 331 331 331 330
306 302 297 297 298 302 304 304 305 304 302 315 316 310 313 322 328 328 328 327 328 330 333 332 333 334 335 335 333 335 337 338 337 336 334 332 332 332 332 330 332 333 334 334 334 335 333 333 333
307 297 296 299 299 301 304 303 304 305 310 309 313 315 317 327 328 326 326 326 325 328 328 329 329 330 331 331 331 328 330 333 333 331 329 327 327 327 327 327 329 332 333 334 335 337 336 334 331
302 296 298 303 302 301 304 304 305 305 307 308 310 320 326 327 326 324 323 323 321 322 324 326 326 327 327 332 330 331 332 333 332 329 328 327 326 326 327 323 325 328 328 331 333 334 333 328 325
303 298 301 303 304 305 305 304 305 305 303 308 311 318 323 325 325 324 324 324 323 322 323 326 325 325 325 326 326 326 328 329 330 327 327 325 325 322 321 321 323 323 321 323 324 323 323 322 322
301 305 302 305 306 304 304 306 303 305 304 309 317 322 324 324 324 323 323 322 322 323 323 325 326 325 324 324 324 324 324 324 324 325 326 324 323 321 320 319 319 320 321 321 320 320 321 321 322
304 304 305 306 306 305 305 305 304 303 313 318 323 323 323 323 323 324 325 324 323 323 325 326 326 326 326 324 324 322 322 322 322 322 323 324 322 320 320 320 320 320 320 320 320 320 320 321 321
307 306 305 305 305 304 304 303 304 305 317 319 321 320 322 323 322 321 322 323 323 325 325 327 328 328 327 326 325 324 323 324 323 323 323 324 323 321 321 321 321 320 321 321 320 320 321 321 321
308 301 301 301 302 303 305 300 302 308 317 317 318 318 319 320 321 322 323 323 325 326 326 326 327 329 327 327 326 326 326 326 325 325 325 325 325 323 322 321 321 322 322 322 322 321 321 320 321
304 302 294 299 301 302 303 297 303 312 315 314 315 316 318 319 321 322 323 324 325 325 326 327 329 328 327 327 327 326 326 326 326 326 326 326 326 325 324 323 323 324 323 325 325 324 324 325 325
299 293 295 296 298 299 300 298 303 311 313 312 312 314 317 317 319 321 323 323 324 325 325 325 326 326 326 326 326 326 326 326 326 326 326 326 327 327 325 326 327 327 327 327 326 326 324 324 324
294 295 297 294 296 297 297 299 300 306 310 310 311 312 315 316 318 320 321 321 321 321 322 322 323 324 325 325 324 324 324 324 324 324 323 325 325 326 329 329 328 327 327 325 322 321 318 319 314
300 298 296 297 297 295 296 298 300 302 306 307 308 310 312 314 304 308 313 313 310 309 312 312 318 311 321 321 321 320 320 319 318 314 315 315 316 317 318 318 320 320 319 315 314 313 311 310 311
300 296 295 297 298 296 293 297 298 300 303 306 308 307 309 301 301 303 303 304 304 304 306 307 307 307 308 311 312 315 313 310 310 312 312 312 313 313 314 313 312 311 310 309 310 310 311 312 310
298 296 295 294 297 297 293 293 294 297 299 301 304 306 306 300 300 300 300 300 301 302 303 303 303 303 304 306 308 308 308 308 307 307 307 309 310 311 310 309 308 307 307 306 306 309 311 309 311
294 300 299 295 294 291 296 288 293 295 297 297 298 302 297 297 299 299 299 299 300 300 301 301 301 301 302 303 304 304 303 302 302 303 302 303 306 304 306 306 305 304 304 303 303 305 305 307 307
297 301 299 297 294 293 293 291 295 295 293 295 296 295 295 297 298 299 300 300 299 299 298 298 298 299 298 298 300 299 298 299 298 297 296 297 299 299 299 300 299 299 299 299 299 299 300 301 301
301 296 294 294 293 287 292 292 292 292 293 295 295 295 296 298 300 300 301 299 298 299 298 298 298 296 297 296 295 295 294 294 294 293 293 294 295 295 294 295 295 295 295 295 296 296 296 296 296
298 294 283 282 282 283 291 290 294 295 298 295 294 296 298 298 300 299 299 297 297 296 298 298 297 295 294 293 293 293 292 292 291 291 291 291 291 291 291 291 291 291 292 292 293 292 292 293 292
295 293 285 279 280 280 287 286 292 297 296 297 297 297 298 297 298 298 298 298 297 296 296 295 295 293 293 292 291 291 291 290 290 289 289 289 289 289 289 289 289 289 290 290 290 290 290 290 290
292 289 291 282 278 280 285 287 289 291 296 296 296 297 297 297 297 297 298 297 297 296 294 295 294 292 292 290 290 289 289 288 287 287 287 287 287 289 288 287 287 288 288 288 287 288 288 288 288
294 294 286 284 278 275 278 278 282 286 290 297 295 297 297 298 298 297 296 296 296 295 294 293 292 291 290 290 289 288 287 287 286 286 285 285 286 286 286 286 286 286 286 286 286 286 286 285 286
290 287 288 287 284 279 277 281 285 287 290 294 299 300 298 297 296 295 295 295 294 293 291 289 289 289 289 287 286 286 285 285 285 284 284 284 284 285 285 285 285 285 284 285 284 284 284 284 284
294 289 288 283 281 281 281 281 288 288 291 293 293 295 295 296 295 295 294 293 292 290 289 289 289 288 288 287 286 284 284 284 283 283 283 283 282 283 283 283 283 283 283 283 283 283 283 282 282
Wind_Speed
2 2 1 3 4 4 3 4 1 3 2 1 2 5 6 3 3 3 1 4 11 10 6 8 14 13 14 13 12 10 11 11 12 12 12 11 11 10 10 9 9 9 8 9 9 9 9 9 8
2 2 4 2 3 2 4 4 2 2 5 6 5 2 5 2 3 7 8 6 11 9 6 8 13 13 15 13 12 10 10 9 10 9 9 9 9 8 8 7 7 6 6 6 7 8 8 8 7
3 2 3 4 2 3 3 3 3 2 4 2 4 5 3 1 2 10 3 10 8 7 6 8 12 14 15 12 12 11 9 8 8 7 7 7 7 6 5 5 5 6 5 4 5 5 5 5 5
2 4 4 4 3 5 4 2 5 5 1 4 4 6 3 3 7 5 10 11 9 7 6 10 13 13 13 12 10 10 9 8 7 6 6 5 5 5 5 4 3 3 5 2 3 2 2 2 3
3 3 3 1 4 3 2 2 9 5 2 2 1 4 3 3 7 12 11 10 11 7 6 7 12 12 11 11 10 9 8 7 6 5 5 5 4 4 3 3 3 2 2 3 3 2 2 4 5
4 2 3 2 4 2 1 4 6 4 3 2 5 4 2 2 8 8 9 8 7 9 6 5 8 9 9 9 9 7 7 7 7 6 6 5 5 4 3 2 1 1 2 2 3 3 5 7 8
2 3 3 2 3 4 2 6 6 6 6 4 8 5 2 4 4 8 8 7 7 6 8 5 5 5 7 7 8 8 8 7 6 5 4 4 2 2 2 3 4 5 5 5 6 7 8 8 9
2 3 1 2 1 3 2 1 4 6 4 2 3 6 6 5 8 9 8 7 7 6 7 5 5 5 5 5 7 6 5 7 6 5 4 3 3 3 3 4 6 7 8 8 9 8 9 10 10
2 3 2 3 1 3 4 1 2 2 7 1 2 5 2 16 12 11 10 5 4 4 5 5 5 5 5 4 3 4 5 7 5 4 4 3 2 3 4 5 6 8 9 10 10 10 10 10 10
3 2 6 2 2 4 4 3 6 3 4 1 3 6 13 16 14 15 13 11 6 6 5 5 5 5 5 3 3 4 3 3 3 3 3 2 3 4 4 5 7 7 8 10 10 11 9 7 4
1 4 2 2 3 2 4 3 5 8 3 7 8 14 16 18 12 14 10 12 11 6 4 6 5 5 6 4 3 2 2 3 3 3 3 2 2 3 3 3 3 4 5 4 5 5 3 5 4
4 6 3 6 3 5 4 3 3 6 5 3 10 17 18 19 14 12 10 8 8 7 7 6 6 5 5 2 3 3 2 2 2 3 3 2 2 3 4 3 4 3 3 4 4 3 5 5 5
5 3 3 6 8 7 5 6 5 5 4 7 16 14 15 13 11 6 7 6 6 7 7 7 7 6 4 4 2 2 3 3 3 3 4 3 3 4 3 4 3 4 3 4 4 4 4 5 5
4 6 4 5 6 4 4 3 3 2 5 8 14 13 13 12 11 6 7 7 7 6 7 6 6 6 5 5 5 4 3 4 3 4 4 5 4 4 4 4 4 4 4 4 4 4 4 4 4
3 3 3 4 4 5 5 2 6 4 6 9 9 8 9 9 7 11 8 7 8 5 5 7 7 6 6 6 5 4 4 3 4 4 5 5 5 5 5 4 4 5 4 5 4 4 3 4 4
4 3 4 3 3 2 5 8 3 7 11 9 8 6 8 8 9 6 7 7 7 4 7 6 5 6 7 6 4 4 3 3 4 3 3 5 5 5 4 4 4 4 3 3 3 3 5 4 3
5 5 5 2 1 1 3 6 2 4 7 8 7 6 6 6 5 6 7 7 6 7 6 6 6 6 6 3 2 3 4 3 2 2 3 5 5 5 4 4 4 3 3 3 3 2 2 4 4
10 7 5 6 2 2 2 6 1 3 6 8 7 6 6 6 6 4 4 3 2 2 2 3 2 2 2 2 2 2 1 1 2 3 4 5 4 5 4 3 3 3 3 3 3 3 3 3 4
16 7 6 4 1 3 5 5 4 5 4 7 7 7 5 6 3 4 5 5 6 6 6 5 5 5 2 1 1 2 2 2 4 4 6 7 6 7 6 4 5 5 4 5 4 3 4 3 4
8 7 6 3 1 3 1 7 1 4 5 6 8 7 7 5 4 5 6 6 7 7 7 7 7 6 5 3 2 2 3 4 4 3 6 7 7 7 6 6 5 6 4 5 5 5 5 4 3
9 15 11 5 3 3 2 5 3 2 2 6 5 5 6 7 7 5 6 7 7 8 7 7 7 6 6 5 2 3 3 3 4 4 4 7 8 8 8 7 6 6 5 4 4 6 6 5 5
9 4 7 12 8 5 1 4 6 4 5 3 4 7 8 9 6 6 6 7 6 6 7 7 6 7 7 7 6 6 3 3 2 2 3 5 8 9 8 7 6 5 4 5 4 4 3 4 5
2 9 8 3 8 5 2 1 1 5 6 5 6 5 7 8 8 7 6 6 5 6 7 7 7 8 8 8 7 5 6 4 3 4 6 6 5 7 8 7 6 6 5 5 5 5 5 2 2
11 11 9 6 2 7 7 10 4 5 5 6 6 7 2 8 7 6 5 7 6 6 7 8 10 8 8 8 8 9 8 6 5 5 4 4 4 5 8 8 7 6 5 5 4 5 5 4 3
5 10 2 2 3 2 1 8 4 3 2 2 14 11 8 4 9 3 9 8 8 7 7 5 10 9 6 8 9 8 8 8 7 5 4 5 4 4 6 6 6 4 4 5 5 4 5 4 3
10 5 5 6 5 3 3 6 2 4 6 7 7 9 11 0 6 1 4 10 10 8 8 7 8 9 7 7 8 7 8 5 4 5 4 4 4 4 5 5 5 6 6 6 5 3 4 5 5
4 4 3 6 3 4 3 5 5 5 5 10 9 9 9 7 3 3 5 5 9 9 6 6 8 8 8 8 6 7 6 7 5 6 5 4 4 5 6 6 6 7 6 6 6 4 6 5 5
2 5 3 3 5 2 1 4 4 4 8 7 9 10 7 7 7 8 3 4 8 8 6 8 9 9 6 7 6 6 6 6 5 6 7 6 5 7 7 8 8 9 8 8 7 6 5 6 5
5 5 4 2 2 4 4 5 2 4 8 13 13 15 17 13 9 8 6 5 6 7 7 8 7 7 7 6 6 6 6 6 6 6 6 6 6 7 7 7 7 7 7 8 7 7 7 8 8
4 6 5 3 3 1 1 3 2 2 6 8 8 10 9 10 8 8 8 7 7 7 7 6 5 6 6 5 6 6 6 6 6 6 6 5 6 5 6 6 6 7 8 7 7 8 8 9 10
Wind_Direction
76 127 88 35 53 65 276 273 286 127 99 359 81 132 159 79 147 191 57 139 132 143 145 146 137 145 138 133 140 126 111 103 98 96 92 90 98 107 104 96 91 81 75 72 73 72 69 66 63
176 235 40 85 91 56 273 283 248 186 150 124 74 63 52 91 83 124 133 153 138 139 133 135 138 133 137 138 141 128 115 106 100 95 92 89 84 79 76 77 71 98 88 74 72 65 61 55 51
160 53 79 98 102 176 219 251 133 46 147 86 94 49 98 121 88 148 126 133 124 114 125 139 141 136 138 145 140 127 119 112 101 95 92 93 92 89 90 81 53 42 89 90 68 61 51 43 34
75 7 35 96 227 232 199 208 136 128 312 68 121 67 48 313 147 156 131 125 121 117 118 142 144 144 142 139 135 130 128 121 114 110 109 109 113 112 107 97 74 46 20 184 89 91 46 14 3
38 48 72 80 257 269 253 220 141 143 111 63 82 153 71 28 96 125 130 130 138 122 123 137 144 142 141 142 139 137 131 123 117 118 121 121 133 141 131 115 109 102 59 47 5 142 294 307 314
31 88 74 203 252 257 204 180 132 115 123 168 80 94 127 104 125 136 126 124 128 134 126 131 132 135 142 148 145 149 148 143 146 151 151 152 159 172 186 190 208 297 315 315 302 289 282 288 298
73 74 209 221 266 301 172 165 140 141 141 226 147 88 89 162 141 129 122 115 116 119 134 126 139 142 151 160 161 169 177 167 162 168 174 170 174 218 251 287 300 302 301 302 298 292 290 295 303
96 88 264 261 275 304 7 227 129 136 171 121 134 164 169 173 135 108 99 106 116 128 145 145 147 157 169 179 186 193 207 183 181 188 202 212 233 264 290 297 298 295 298 298 298 294 294 297 303
42 60 225 257 178 348 1 12 357 74 112 94 80 139 178 131 126 118 122 106 114 140 159 160 166 173 177 190 202 223 243 199 200 213 228 249 266 288 290 281 280 287 294 298 300 299 296 298 302
78 142 220 246 14 312 288 220 164 106 119 116 85 42 124 135 144 150 158 159 164 169 184 182 177 181 179 185 182 206 212 209 217 224 234 258 274 281 285 289 284 278 281 285 288 293 296 297 283
189 211 243 271 294 327 308 303 166 129 232 206 181 152 150 152 154 159 166 169 178 177 178 185 187 194 187 198 183 202 196 206 233 251 257 278 307 314 311 309 309 315 314 304 303 296 285 288 286
207 250 240 286 7 341 308 320 245 182 221 238 155 156 155 163 168 165 171 172 162 171 190 188 189 194 207 187 199 203 212 223 252 260 250 237 253 257 256 254 267 270 267 280 280 286 284 278 273
195 228 240 270 305 282 290 255 227 238 358 106 128 146 159 164 165 168 168 161 164 180 185 198 180 192 196 206 219 221 214 224 237 250 254 234 256 266 268 261 261 264 269 258 273 270 273 278 276
196 200 259 280 271 268 271 313 137 171 121 120 140 154 159 168 167 148 162 170 185 190 190 191 192 189 180 199 205 218 226 225 223 236 236 231 226 240 253 271 265 258 245 261 262 264 273 278 281
157 224 285 228 234 239 178 293 225 133 136 142 147 157 154 166 169 180 183 175 186 196 197 193 196 188 197 202 213 210 224 218 236 239 242 243 233 240 246 258 273 264 265 271 270 280 282 288 275
177 162 227 289 199 259 140 269 224 154 146 160 151 164 169 170 185 188 177 190 196 177 188 201 190 185 206 211 212 220 229 229 252 261 275 269 263 248 252 251 259 275 274 266 275 276 296 281 270
214 213 177 282 84 266 179 252 2 168 158 164 163 176 181 162 177 196 195 194 189 202 204 212 202 208 212 217 189 231 249 241 278 312 304 299 289 278 247 250 272 291 295 289 297 310 280 298 306
203 215 183 178 237 162 223 251 90 174 185 172 164 183 186 181 204 202 176 170 170 138 106 110 163 204 183 145 161 225 271 355 35 17 5 359 356 350 328 336 7 9 3 16 3 326 312 292 299
201 167 176 169 90 156 203 265 206 163 145 161 188 195 183 191 50 47 81 109 103 57 74 59 90 20 54 74 51 38 38 27 59 46 34 29 28 26 30 21 39 27 31 16 7 340 338 341 346
220 191 182 61 95 119 261 263 237 172 205 192 188 183 176 143 93 64 69 63 60 78 71 67 68 49 41 52 53 87 99 75 75 54 38 26 29 28 43 29 30 29 26 21 16 19 346 317 359
220 220 197 148 130 63 130 285 236 207 152 151 178 153 144 161 136 108 83 81 78 68 64 71 65 56 46 46 88 64 59 53 31 19 24 21 29 31 36 34 31 30 32 30 15 14 358 333 334
216 159 168 149 140 199 171 265 221 219 161 105 118 161 144 133 108 109 111 85 81 76 71 67 62 62 52 43 54 66 81 92 41 29 27 31 34 35 33 31 31 32 24 27 8 14 11 348 336
205 112 135 121 138 139 202 168 223 170 191 146 109 103 111 119 120 115 99 98 91 95 89 77 63 50 47 63 66 77 77 80 67 40 42 34 34 39 28 26 24 25 20 16 17 9 6 355 306
130 89 52 57 80 199 162 175 214 215 182 141 110 89 55 111 100 106 107 87 76 54 69 82 71 46 44 56 60 68 72 64 59 35 31 18 15 27 22 19 20 18 12 13 2 358 0 356 335
144 136 86 106 176 193 27 191 224 303 347 153 146 130 98 33 106 302 134 114 92 78 72 67 82 70 40 57 60 61 70 69 68 56 40 34 19 13 8 9 13 6 360 7 4 1 351 346 338
153 143 153 162 174 142 351 229 241 183 113 91 89 113 109 136 89 286 147 120 118 100 77 79 75 79 60 61 57 55 58 67 64 57 54 40 30 21 356 1 10 9 8 2 1 351 339 346 340
153 151 192 112 39 103 184 256 293 98 99 124 124 117 119 124 96 23 34 30 85 81 92 86 88 81 68 72 67 62 58 61 62 52 47 35 10 3 4 5 5 6 5 4 358 1 355 355 340
128 135 105 356 139 125 220 267 236 225 173 166 145 146 156 146 170 142 200 110 81 92 103 84 80 83 81 81 72 72 65 57 49 47 38 22 5 7 4 5 6 4 3 4 2 358 352 356 343
126 132 77 96 58 139 127 262 180 223 196 190 186 178 178 184 169 157 144 100 100 93 82 80 78 89 84 76 71 65 51 41 39 40 25 17 3 6 8 2 358 0 358 358 2 357 0 352 345
119 158 151 128 202 71 163 253 51 303 170 158 166 164 157 155 153 134 140 120 90 82 75 84 94 93 81 80 75 65 52 39 37 31 18 12 8 5 0 1 8 8 2 359 8 3 358 355 351